EIN38Y EINN-EGLL

Flight info

Callsign EIN38Y
Flight time 1h 0m
Altitude 35000
Route ABAGU3A ABAGU DCT ENJEX DCT AVZAC DCT INFEC DCT JETZI DCT AMFUL P2 SIRIC
Aircraft A20N/M-SDE2E3FGHIJ1RWXY/LB1

Departure

Time 2026-04-30 11:07
Airport Shannon Airport (EINN)

Arrival

Time 2026-04-30 12:07
Airport London Heathrow Airport (EGLL)
Time Latitude Longitude Altitude Speed Heading
2026-04-30 10:55 52.69375 -8.92282 14 ft 0 kts 185°
2026-04-30 10:59 52.69384 -8.92281 14 ft 2 kts 185°
2026-04-30 10:59 52.69398 -8.92279 14 ft 2 kts 185°
2026-04-30 11:00 52.69413 -8.92277 14 ft 2 kts 185°
2026-04-30 11:00 52.69428 -8.92275 14 ft 2 kts 185°
2026-04-30 11:00 52.69442 -8.92273 14 ft 2 kts 185°
2026-04-30 11:00 52.69457 -8.92270 14 ft 2 kts 185°
2026-04-30 11:01 52.69472 -8.92267 14 ft 2 kts 207°
2026-04-30 11:01 52.69484 -8.92252 14 ft 2 kts 231°
2026-04-30 11:01 52.69491 -8.92230 14 ft 2 kts 257°
2026-04-30 11:01 52.69492 -8.92205 14 ft 2 kts 282°
2026-04-30 11:02 52.69490 -8.92193 14 ft 1 kts 296°
2026-04-30 11:02 52.69488 -8.92187 14 ft 0 kts 292°
2026-04-30 11:04 52.69493 -8.92208 14 ft 4 kts 292°
2026-04-30 11:04 52.69513 -8.92280 14 ft 9 kts 295°
2026-04-30 11:05 52.69557 -8.92389 14 ft 13 kts 313°
2026-04-30 11:05 52.69633 -8.92512 14 ft 17 kts 316°
2026-04-30 11:05 52.69727 -8.92664 14 ft 20 kts 314°
2026-04-30 11:05 52.69820 -8.92819 14 ft 14 kts 315°
2026-04-30 11:06 52.69888 -8.92927 16 ft 12 kts 316°
2026-04-30 11:06 52.69939 -8.93003 18 ft 5 kts 351°
2026-04-30 11:06 52.69960 -8.92986 17 ft 0 kts 52°
2026-04-30 11:07 52.70014 -8.92870 15 ft 46 kts 53°
2026-04-30 11:07 52.70361 -8.92138 15 ft 115 kts 52°
2026-04-30 11:07 52.70972 -8.90842 140 ft 158 kts 54°
2026-04-30 11:07 52.71617 -8.89413 770 ft 159 kts 64°
2026-04-30 11:08 52.71734 -8.87753 1578 ft 150 kts 109°
2026-04-30 11:08 52.71331 -8.86220 2290 ft 151 kts 113°
2026-04-30 11:08 52.70928 -8.84543 2737 ft 167 kts 112°
2026-04-30 11:08 52.70523 -8.82636 3172 ft 187 kts 110°
2026-04-30 11:09 52.70102 -8.80475 3597 ft 209 kts 109°
2026-04-30 11:09 52.69673 -8.78134 4130 ft 227 kts 108°
2026-04-30 11:09 52.69223 -8.75563 4774 ft 241 kts 108°
2026-04-30 11:09 52.68768 -8.72894 5670 ft 245 kts 108°
2026-04-30 11:10 52.68320 -8.70231 6578 ft 248 kts 108°
2026-04-30 11:10 52.67865 -8.67495 7488 ft 251 kts 108°
2026-04-30 11:10 52.67411 -8.64766 8367 ft 254 kts 108°
2026-04-30 11:10 52.66945 -8.61956 9243 ft 257 kts 108°
2026-04-30 11:11 52.66472 -8.59109 10099 ft 261 kts 109°
2026-04-30 11:11 52.66013 -8.56344 10801 ft 268 kts 108°
2026-04-30 11:11 52.65498 -8.53270 11259 ft 286 kts 108°
2026-04-30 11:11 52.64955 -8.50025 11663 ft 304 kts 109°
2026-04-30 11:12 52.64388 -8.46632 12100 ft 319 kts 108°
2026-04-30 11:12 52.63802 -8.43126 12834 ft 324 kts 108°
2026-04-30 11:12 52.63215 -8.39614 13619 ft 326 kts 109°
2026-04-30 11:12 52.62615 -8.36035 14378 ft 329 kts 108°
2026-04-30 11:13 52.62007 -8.32423 15112 ft 333 kts 109°
2026-04-30 11:13 52.61400 -8.28815 15821 ft 336 kts 110°
2026-04-30 11:13 52.60783 -8.25161 16549 ft 339 kts 110°
2026-04-30 11:13 52.60158 -8.21475 17215 ft 342 kts 109°
2026-04-30 11:14 52.59516 -8.17704 17861 ft 346 kts 109°
2026-04-30 11:14 52.58884 -8.13994 18461 ft 349 kts 109°
2026-04-30 11:14 52.58234 -8.10193 19099 ft 352 kts 109°
2026-04-30 11:14 52.57578 -8.06352 19708 ft 356 kts 109°
2026-04-30 11:15 52.56915 -8.02498 20293 ft 360 kts 109°
2026-04-30 11:15 52.56264 -7.98704 20835 ft 363 kts 109°
2026-04-30 11:15 52.55598 -7.94835 21386 ft 367 kts 109°
2026-04-30 11:15 52.54912 -7.90859 21951 ft 370 kts 109°
2026-04-30 11:16 52.54218 -7.86854 22476 ft 373 kts 109°
2026-04-30 11:16 52.53538 -7.82939 22992 ft 377 kts 109°
2026-04-30 11:16 52.52842 -7.78935 23502 ft 380 kts 109°
2026-04-30 11:16 52.52135 -7.74872 23987 ft 383 kts 109°
2026-04-30 11:17 52.51423 -7.70793 24481 ft 386 kts 109°
2026-04-30 11:17 52.50655 -7.66669 24973 ft 387 kts 112°
2026-04-30 11:17 52.49769 -7.62695 25433 ft 389 kts 115°
2026-04-30 11:17 52.48723 -7.58663 25887 ft 391 kts 117°
2026-04-30 11:18 52.47650 -7.54687 26308 ft 394 kts 117°
2026-04-30 11:18 52.45505 -7.46766 27160 ft 399 kts 117°
2026-04-30 11:18 52.44388 -7.42652 27630 ft 400 kts 117°
2026-04-30 11:19 52.43291 -7.38616 28183 ft 398 kts 117°
2026-04-30 11:19 52.42190 -7.34572 28756 ft 397 kts 117°
2026-04-30 11:19 52.41112 -7.30617 29321 ft 395 kts 117°
2026-04-30 11:19 52.40016 -7.26604 29886 ft 393 kts 117°
2026-04-30 11:20 52.38939 -7.22672 30398 ft 392 kts 118°
2026-04-30 11:20 52.37842 -7.18672 30916 ft 390 kts 118°
2026-04-30 11:20 52.36757 -7.14726 31411 ft 389 kts 118°
2026-04-30 11:20 52.35669 -7.10768 31902 ft 387 kts 118°
2026-04-30 11:21 52.34577 -7.06811 32383 ft 385 kts 118°
2026-04-30 11:21 52.33502 -7.02922 32870 ft 383 kts 118°
2026-04-30 11:21 52.32434 -6.99062 33341 ft 380 kts 118°
2026-04-30 11:21 52.31383 -6.95272 33717 ft 380 kts 118°
2026-04-30 11:22 52.30317 -6.91432 34004 ft 381 kts 118°
2026-04-30 11:22 52.29235 -6.87545 34283 ft 383 kts 118°
2026-04-30 11:22 52.28171 -6.83727 34561 ft 384 kts 118°
2026-04-30 11:22 52.27080 -6.79814 34831 ft 384 kts 118°
2026-04-30 11:23 52.25964 -6.75823 35030 ft 386 kts 118°
2026-04-30 11:23 52.24869 -6.71911 35077 ft 388 kts 118°
2026-04-30 11:24 52.21532 -6.60028 35085 ft 389 kts 118°
2026-04-30 11:24 52.19329 -6.52216 35084 ft 389 kts 118°
2026-04-30 11:25 52.15970 -6.40360 35086 ft 391 kts 118°
2026-04-30 11:26 52.11505 -6.24693 35084 ft 389 kts 118°
2026-04-30 11:26 52.09293 -6.16968 35080 ft 389 kts 119°
2026-04-30 11:27 52.07052 -6.09171 35082 ft 390 kts 118°
2026-04-30 11:27 52.04832 -6.01429 35083 ft 392 kts 118°
2026-04-30 11:28 52.01914 -5.91005 35078 ft 390 kts 118°
2026-04-30 11:29 51.99736 -5.83273 35075 ft 391 kts 118°
2026-04-30 11:29 51.96242 -5.70937 35069 ft 391 kts 118°
2026-04-30 11:30 51.92912 -5.59234 35068 ft 393 kts 117°
2026-04-30 11:31 51.90665 -5.51376 35066 ft 394 kts 117°
2026-04-30 11:31 51.88442 -5.43624 35064 ft 395 kts 117°
2026-04-30 11:32 51.86189 -5.35794 35061 ft 395 kts 117°
2026-04-30 11:32 51.83925 -5.27962 35061 ft 396 kts 118°
2026-04-30 11:33 51.80526 -5.16242 35060 ft 395 kts 118°
2026-04-30 11:33 51.78276 -5.08518 35057 ft 396 kts 118°
2026-04-30 11:34 51.76142 -5.00577 35053 ft 396 kts 116°
2026-04-30 11:34 51.74065 -4.92676 35058 ft 397 kts 116°
2026-04-30 11:35 51.71979 -4.84773 35056 ft 399 kts 116°
2026-04-30 11:35 51.69864 -4.76792 35056 ft 400 kts 116°
2026-04-30 11:36 51.67759 -4.68874 35058 ft 401 kts 115°
2026-04-30 11:36 51.65657 -4.60985 35060 ft 401 kts 115°
2026-04-30 11:37 51.63546 -4.53099 35068 ft 402 kts 116°
2026-04-30 11:37 51.61410 -4.45147 35070 ft 401 kts 115°
2026-04-30 11:38 51.59286 -4.37269 35067 ft 402 kts 115°
2026-04-30 11:38 51.57195 -4.29542 35066 ft 401 kts 116°
2026-04-30 11:39 51.55235 -4.21577 35065 ft 404 kts 111°
2026-04-30 11:39 51.53779 -4.13323 35072 ft 406 kts 106°
2026-04-30 11:40 51.52761 -4.04782 35071 ft 408 kts 103°
2026-04-30 11:40 51.51801 -3.96198 35075 ft 408 kts 103°
2026-04-30 11:41 51.50829 -3.87617 35085 ft 409 kts 103°
2026-04-30 11:41 51.49823 -3.78811 35091 ft 409 kts 103°
2026-04-30 11:42 51.48832 -3.70232 35099 ft 409 kts 103°
2026-04-30 11:42 51.47906 -3.61556 35106 ft 409 kts 100°
2026-04-30 11:43 51.47365 -3.52877 35113 ft 411 kts 98°
2026-04-30 11:43 51.46855 -3.44026 35117 ft 411 kts 98°
2026-04-30 11:44 51.46344 -3.35331 35117 ft 411 kts 98°
2026-04-30 11:44 51.45824 -3.26623 35119 ft 411 kts 98°
2026-04-30 11:45 51.45307 -3.18052 34931 ft 411 kts 98°
2026-04-30 11:45 51.45040 -3.13660 34700 ft 409 kts 99°
2026-04-30 11:45 51.44776 -3.09355 34320 ft 407 kts 99°
2026-04-30 11:46 51.44512 -3.05055 33834 ft 405 kts 99°
2026-04-30 11:46 51.44249 -3.00830 33271 ft 404 kts 99°
2026-04-30 11:46 51.43975 -2.96466 32644 ft 405 kts 99°
2026-04-30 11:46 51.43705 -2.92174 32011 ft 406 kts 99°
2026-04-30 11:47 51.43427 -2.87783 31346 ft 407 kts 99°
2026-04-30 11:47 51.43152 -2.83477 30674 ft 408 kts 99°
2026-04-30 11:47 51.42876 -2.79161 29984 ft 409 kts 99°
2026-04-30 11:47 51.42594 -2.74788 29279 ft 410 kts 99°
2026-04-30 11:48 51.42312 -2.70444 28578 ft 410 kts 99°
2026-04-30 11:48 51.42031 -2.66124 27882 ft 410 kts 99°
2026-04-30 11:48 51.41742 -2.61724 27149 ft 410 kts 99°
2026-04-30 11:48 51.41455 -2.57397 26599 ft 405 kts 99°
2026-04-30 11:49 51.41172 -2.53120 26125 ft 399 kts 99°
2026-04-30 11:49 51.40888 -2.48852 25632 ft 394 kts 99°
2026-04-30 11:49 51.40614 -2.44753 25154 ft 389 kts 99°
2026-04-30 11:49 51.40332 -2.40559 24667 ft 385 kts 99°
2026-04-30 11:50 51.40055 -2.36452 24186 ft 380 kts 100°
2026-04-30 11:50 51.39782 -2.32431 23713 ft 377 kts 101°
2026-04-30 11:50 51.39508 -2.28429 23235 ft 374 kts 101°
2026-04-30 11:50 51.39227 -2.24373 22742 ft 371 kts 101°
2026-04-30 11:51 51.38951 -2.20392 22257 ft 368 kts 101°
2026-04-30 11:51 51.38676 -2.16454 21770 ft 365 kts 100°
2026-04-30 11:51 51.38399 -2.12514 21278 ft 362 kts 100°
2026-04-30 11:51 51.38125 -2.08621 20788 ft 360 kts 101°
2026-04-30 11:52 51.37849 -2.04724 20288 ft 358 kts 101°
2026-04-30 11:52 51.37574 -2.00856 19805 ft 355 kts 100°
2026-04-30 11:52 51.37309 -1.97121 19324 ft 353 kts 100°
2026-04-30 11:52 51.37035 -1.93274 18837 ft 351 kts 100°
2026-04-30 11:53 51.36761 -1.89446 18328 ft 349 kts 100°
2026-04-30 11:53 51.36491 -1.85711 17869 ft 347 kts 100°
2026-04-30 11:53 51.36220 -1.81993 17405 ft 345 kts 100°
2026-04-30 11:53 51.35949 -1.78275 16932 ft 344 kts 100°
2026-04-30 11:54 51.35673 -1.74515 16448 ft 342 kts 100°
2026-04-30 11:54 51.35402 -1.70854 15975 ft 341 kts 100°
2026-04-30 11:54 51.35128 -1.67156 15493 ft 339 kts 99°
2026-04-30 11:54 51.34851 -1.63448 15014 ft 337 kts 99°
2026-04-30 11:55 51.34580 -1.59810 14542 ft 336 kts 99°
2026-04-30 11:55 51.34309 -1.56188 14068 ft 334 kts 99°
2026-04-30 11:55 51.34034 -1.52523 14002 ft 338 kts 99°
2026-04-30 11:55 51.33759 -1.48878 14055 ft 340 kts 99°
2026-04-30 11:56 51.33477 -1.45139 14055 ft 340 kts 99°
2026-04-30 11:56 51.33200 -1.41491 14066 ft 337 kts 99°
2026-04-30 11:56 51.32923 -1.37862 13730 ft 334 kts 99°
2026-04-30 11:56 51.32651 -1.34299 13152 ft 334 kts 100°
2026-04-30 11:57 51.32512 -1.30754 12848 ft 327 kts 93°
2026-04-30 11:57 51.32561 -1.27380 12491 ft 321 kts 91°
2026-04-30 11:57 51.32649 -1.23991 11921 ft 311 kts 91°
2026-04-30 11:57 51.32746 -1.20710 11204 ft 304 kts 91°
2026-04-30 11:58 51.32850 -1.17373 10464 ft 297 kts 90°
2026-04-30 11:58 51.32948 -1.14199 9744 ft 291 kts 90°
2026-04-30 11:58 51.33049 -1.11149 9037 ft 286 kts 88°
2026-04-30 11:58 51.33579 -1.08193 8302 ft 288 kts 64°
2026-04-30 11:59 51.34838 -1.05905 7680 ft 289 kts 41°
2026-04-30 11:59 51.36423 -1.04173 7321 ft 280 kts 41°
2026-04-30 11:59 51.37880 -1.02361 6969 ft 278 kts 45°
2026-04-30 11:59 51.39324 -1.00424 6654 ft 275 kts 45°
2026-04-30 12:00 51.40726 -0.98515 6317 ft 273 kts 45°
2026-04-30 12:00 51.42109 -0.96623 5962 ft 271 kts 46°
2026-04-30 12:00 51.43487 -0.94749 5608 ft 269 kts 45°
2026-04-30 12:00 51.44865 -0.92883 5252 ft 267 kts 46°
2026-04-30 12:01 51.46243 -0.91015 4892 ft 265 kts 48°
2026-04-30 12:01 51.47226 -0.88772 4595 ft 248 kts 75°
2026-04-30 12:01 51.47559 -0.86236 4451 ft 233 kts 89°
2026-04-30 12:01 51.47662 -0.83796 4242 ft 227 kts 91°
2026-04-30 12:02 51.47714 -0.81346 3953 ft 224 kts 92°
2026-04-30 12:02 51.47733 -0.78930 3668 ft 217 kts 93°
2026-04-30 12:02 51.47736 -0.76611 3397 ft 210 kts 93°
2026-04-30 12:02 51.47734 -0.74404 3129 ft 200 kts 93°
2026-04-30 12:03 51.47731 -0.72269 2886 ft 187 kts 93°
2026-04-30 12:03 51.47728 -0.68454 2506 ft 162 kts 93°
2026-04-30 12:03 51.47726 -0.66699 2292 ft 161 kts 93°
2026-04-30 12:04 51.47727 -0.65032 2087 ft 146 kts 92°
2026-04-30 12:04 51.47728 -0.63509 1872 ft 133 kts 92°
2026-04-30 12:04 51.47729 -0.62108 1701 ft 128 kts 92°
2026-04-30 12:04 51.47729 -0.60725 1536 ft 127 kts 92°
2026-04-30 12:05 51.47730 -0.59353 1379 ft 127 kts 92°
2026-04-30 12:05 51.47732 -0.57980 1225 ft 127 kts 91°
2026-04-30 12:05 51.47734 -0.56651 1074 ft 126 kts 91°
2026-04-30 12:05 51.47738 -0.55324 923 ft 126 kts 91°
2026-04-30 12:06 51.47739 -0.53990 768 ft 126 kts 90°
2026-04-30 12:06 51.47742 -0.52682 612 ft 125 kts 90°
2026-04-30 12:06 51.47746 -0.51389 458 ft 125 kts 91°
2026-04-30 12:06 51.47749 -0.50076 300 ft 124 kts 91°
2026-04-30 12:07 51.47751 -0.48784 150 ft 123 kts 90°
2026-04-30 12:07 51.47749 -0.47514 87 ft 107 kts 88°
2026-04-30 12:07 51.47757 -0.46640 86 ft 59 kts 90°
2026-04-30 12:07 51.47754 -0.46298 84 ft 17 kts 88°
2026-04-30 12:08 51.47701 -0.46146 83 ft 18 kts 144°
2026-04-30 12:08 51.47608 -0.46025 83 ft 17 kts 127°
2026-04-30 12:08 51.47595 -0.45845 83 ft 17 kts 90°
2026-04-30 12:08 51.47593 -0.45673 86 ft 14 kts 90°
2026-04-30 12:09 51.47594 -0.45515 86 ft 14 kts 89°
2026-04-30 12:09 51.47596 -0.45363 89 ft 14 kts 88°
2026-04-30 12:09 51.47597 -0.45186 91 ft 18 kts 84°
2026-04-30 12:09 51.47597 -0.44976 93 ft 21 kts 91°
2026-04-30 12:10 51.47592 -0.44741 91 ft 18 kts 90°
2026-04-30 12:10 51.47519 -0.44646 91 ft 15 kts 139°
2026-04-30 12:10 51.47424 -0.44562 93 ft 19 kts 179°
2026-04-30 12:10 51.47279 -0.44558 95 ft 23 kts 178°
2026-04-30 12:11 51.47112 -0.44551 97 ft 27 kts 179°
2026-04-30 12:11 51.46933 -0.44556 97 ft 24 kts 181°
2026-04-30 12:11 51.46798 -0.44554 93 ft 16 kts 180°
2026-04-30 12:11 51.46751 -0.44679 93 ft 15 kts 270°
2026-04-30 12:12 51.46752 -0.44830 95 ft 11 kts 270°
2026-04-30 12:12 51.46759 -0.44896 95 ft 3 kts 316°
2026-04-30 12:12 51.46781 -0.44908 96 ft 2 kts 349°
2026-04-30 12:12 51.46796 -0.44912 97 ft 1 kts 353°
2026-04-30 12:13 51.46822 -0.44917 98 ft 2 kts 354°
2026-04-30 12:13 51.46828 -0.44918 98 ft 0 kts 354°